| time (UTC) | temp F | wind direction | speed knots | gust knots | rain 1hr in | rain 24hr in | rain mn in | humidity % | barometer mb |
| 20260902211603 | 90 | 18 | 2.6 | 7.8 | 0.00 | 0.00 | 0.00 | 61 | 1017.3 |
| 20260902210100 | 92 | 327 | 0.9 | 4.3 | 0.00 | 0.00 | 0.00 | 59 | 1017.3 |
| 20260902204642 | 90 | 352 | 2.6 | 7.0 | 0.00 | 0.00 | 0.00 | 61 | 1017.5 |
| 20260902203106 | 91 | 338 | 1.7 | 7.0 | 0.00 | 0.00 | 0.00 | 64 | 1017.7 |
| 20260902201603 | 90 | 349 | 2.6 | 7.8 | 0.00 | 0.00 | 0.00 | 60 | 1017.8 |
| 20260902200105 | 91 | 317 | 2.6 | 7.8 | 0.00 | 0.00 | 0.00 | 60 | 1017.9 |
| 20260902194603 | 91 | 349 | 1.7 | 8.7 | 0.00 | 0.00 | 0.00 | 63 | 1018.1 |
| 20260902193105 | 91 | 339 | 2.6 | 7.8 | 0.00 | 0.00 | 0.00 | 61 | 1018.2 |
| 20260902191604 | 91 | 332 | 5.2 | 8.7 | 0.00 | 0.00 | 0.00 | 60 | 1018.3 |
| 20260902190105 | 91 | 360 | 1.7 | 8.7 | 0.00 | 0.00 | 0.00 | 61 | 1018.4 |
| 20260902184655 | 90 | 5 | 3.5 | 8.7 | 0.00 | 0.00 | 0.00 | 60 | 1018.5 |
| 20260902183113 | 90 | 306 | 4.3 | 8.7 | 0.00 | 0.00 | 0.00 | 61 | 1018.6 |
| 20260902181613 | 90 | 344 | 2.6 | 7.8 | 0.00 | 0.00 | 0.00 | 66 | 1018.7 |
| 20260902180104 | 91 | 19 | 0.9 | 4.3 | 0.00 | 0.00 | 0.00 | 65 | 1018.8 |
| 20260902174608 | 90 | 5 | 2.6 | 7.0 | 0.00 | 0.00 | 0.00 | 63 | 1018.9 |
| 20260902173119 | 90 | 48 | 2.6 | 7.8 | 0.00 | 0.00 | 0.00 | 64 | 1019.1 |
| 20260902171607 | 90 | 336 | 1.7 | 6.1 | 0.00 | 0.00 | 0.00 | 62 | 1019.3 |
| 20260902170100 | 89 | 327 | 1.7 | 7.0 | 0.00 | 0.00 | 0.00 | 64 | 1019.3 |
| 20260902164607 | 89 | 327 | 0.9 | 7.0 | 0.00 | 0.00 | 0.00 | 67 | 1019.5 |
| 20260902163105 | 88 | 312 | 4.3 | 8.7 | 0.00 | 0.00 | 0.00 | 65 | 1019.5 |
| 20260902161610 | 88 | 271 | 2.6 | 7.0 | 0.00 | 0.00 | 0.00 | 68 | 1019.6 |
| 20260902160104 | 88 | 348 | 1.7 | 4.3 | 0.00 | 0.00 | 0.00 | 68 | 1019.6 |
| 20260902154607 | 87 | 355 | 1.7 | 7.0 | 0.00 | 0.00 | 0.00 | 74 | 1019.6 |
| 20260902153110 | 86 | 306 | 2.6 | 7.0 | 0.00 | 0.00 | 0.00 | 72 | 1019.6 |
| 20260902151607 | 87 | 135 | 0.9 | 6.1 | 0.00 | 0.00 | 0.00 | 71 | 1019.7 |
| 20260902150117 | 87 | 44 | 0.9 | 3.5 | 0.00 | 0.00 | 0.00 | 72 | 1019.8 |
| 20260902144603 | 85 | 55 | 0.0 | 3.5 | 0.00 | 0.00 | 0.00 | 76 | 1019.8 |
| 20260902143105 | 84 | 0 | 1.7 | 4.3 | 0.00 | 0.00 | 0.00 | 77 | 1019.6 |
| 20260902141603 | 83 | 42 | 0.0 | 3.5 | 0.00 | 0.00 | 0.00 | 79 | 1019.6 |
| 20260902140118 | 81 | 355 | 0.9 | 3.5 | 0.00 | 0.00 | 0.00 | 81 | 1019.6 |
| 20260902134619 | 80 | 36 | 0.9 | 2.6 | 0.00 | 0.00 | 0.00 | 84 | 1019.7 |
| 20260902133112 | 79 | 100 | 0.0 | 1.7 | 0.00 | 0.00 | 0.00 | 86 | 1019.7 |
| 20260902131604 | 77 | 0 | 0.0 | 1.7 | 0.00 | 0.00 | 0.00 | 90 | 1019.7 |
| 20260902130115 | 75 | 0 | 0.0 | 0.9 | 0.00 | 0.00 | 0.00 | 95 | 1019.7 |
| 20260902124605 | 73 | 0 | 0.0 | 0.0 | 0.00 | 0.00 | 0.00 | 96 | 1019.6 |
| 20260902123112 | 72 | 0 | 0.0 | 0.0 | 0.00 | 0.00 | 0.00 | 97 | 1019.6 |
| 20260902121604 | 70 | 0 | 0.0 | 0.0 | 0.00 | 0.00 | 0.00 | 98 | 1019.5 |
| 20260902120126 | 69 | 0 | 0.0 | 0.0 | 0.00 | 0.00 | 0.00 | 98 | 1019.3 |
| 20260902114625 | 68 | 0 | 0.0 | 0.0 | 0.00 | 0.00 | 0.00 | 98 | 1019.1 |
| 20260902113100 | 68 | 0 | 0.0 | 0.0 | 0.00 | 0.00 | 0.00 | 97 | 1018.8 |
| 20260902111611 | 68 | 0 | 0.0 | 0.0 | 0.00 | 0.00 | 0.00 | 98 | 1018.9 |
| 20260902110106 | 68 | 0 | 0.0 | 0.0 | 0.00 | 0.00 | 0.00 | 97 | 1018.8 |
| 20260902104616 | 68 | 0 | 0.0 | 0.0 | 0.00 | 0.00 | 0.00 | 97 | 1018.7 |
| 20260902103126 | 68 | 0 | 0.0 | 0.0 | 0.00 | 0.00 | 0.00 | 97 | 1018.6 |
| 20260902101609 | 68 | 0 | 0.0 | 0.0 | 0.00 | 0.00 | 0.00 | 97 | 1018.7 |
| 20260902094601 | 69 | 0 | 0.0 | 0.0 | 0.00 | 0.00 | 0.00 | 97 | 1018.6 |
| 20260902093105 | 69 | 0 | 0.0 | 0.0 | 0.00 | 0.00 | 0.00 | 97 | 1018.5 |
| 20260902091603 | 69 | 0 | 0.0 | 0.0 | 0.00 | 0.00 | 0.00 | 97 | 1018.5 |
| 20260902090101 | 69 | 0 | 0.0 | 0.0 | 0.00 | 0.00 | 0.00 | 97 | 1018.3 |
| 20260902084603 | 69 | 0 | 0.0 | 0.0 | 0.00 | 0.00 | 0.00 | 96 | 1018.2 |
| 20260902083101 | 69 | 0 | 0.0 | 0.0 | 0.00 | 0.00 | 0.00 | 97 | 1018.0 |
| 20260902081602 | 69 | 0 | 0.0 | 0.0 | 0.00 | 0.00 | 0.00 | 97 | 1018.0 |
| 20260902074601 | 70 | 0 | 0.0 | 0.0 | 0.00 | 0.00 | 0.00 | 96 | 1017.9 |
| 20260902073108 | 70 | 0 | 0.0 | 0.0 | 0.00 | 0.00 | 0.00 | 96 | 1017.9 |
| 20260902071603 | 70 | 0 | 0.0 | 0.0 | 0.00 | 0.00 | 0.00 | 96 | 1017.9 |
| 20260902070107 | 70 | 0 | 0.0 | 0.0 | 0.00 | 0.00 | 0.00 | 96 | 1018.0 |
| 20260902064606 | 70 | 0 | 0.0 | 0.0 | 0.00 | 0.00 | 0.00 | 96 | 1017.9 |
| 20260902063113 | 70 | 0 | 0.0 | 0.0 | 0.00 | 0.00 | 0.00 | 96 | 1017.9 |
| 20260902061622 | 71 | 0 | 0.0 | 0.0 | 0.00 | 0.00 | 0.00 | 96 | 1018.1 |
| 20260902060111 | 71 | 0 | 0.0 | 0.0 | 0.00 | 0.00 | 0.00 | 95 | 1018.0 |
| 20260902054602 | 71 | 0 | 0.0 | 0.0 | 0.00 | 0.00 | 0.00 | 95 | 1018.0 |
| 20260902053113 | 71 | 0 | 0.0 | 0.0 | 0.00 | 0.00 | 0.00 | 95 | 1018.1 |
| 20260902051615 | 71 | 0 | 0.0 | 0.0 | 0.00 | 0.00 | 0.00 | 95 | 1018.0 |
| 20260902050107 | 72 | 0 | 0.0 | 0.0 | 0.00 | 0.00 | 0.00 | 95 | 1018.0 |
| 20260902044636 | 72 | 0 | 0.0 | 0.0 | 0.00 | 0.00 | 0.00 | 94 | 1018.1 |
| 20260902043105 | 72 | 0 | 0.0 | 0.0 | 0.00 | 0.00 | 0.00 | 94 | 1018.0 |
| 20260902041604 | 73 | 0 | 0.0 | 0.0 | 0.00 | 0.00 | 0.00 | 94 | 1018.0 |
| 20260902040111 | 73 | 0 | 0.0 | 0.0 | 0.00 | 0.00 | 0.00 | 94 | 1018.1 |
| 20260902034603 | 74 | 0 | 0.0 | 0.0 | 0.00 | 0.00 | 0.00 | 93 | 1018.0 |
| 20260902033104 | 74 | 0 | 0.0 | 0.0 | 0.00 | 0.00 | 0.00 | 93 | 1018.0 |
| 20260902031617 | 75 | 0 | 0.0 | 0.0 | 0.00 | 0.00 | 0.00 | 92 | 1018.0 |
| 20260902030108 | 75 | 0 | 0.0 | 0.0 | 0.00 | 0.00 | 0.00 | 91 | 1018.0 |
| 20260902024612 | 76 | 0 | 0.0 | 0.0 | 0.00 | 0.00 | 0.00 | 91 | 1018.0 |
| 20260902023107 | 76 | 0 | 0.0 | 0.0 | 0.00 | 0.00 | 0.00 | 92 | 1018.0 |
| 20260902021603 | 76 | 0 | 0.0 | 0.0 | 0.00 | 0.00 | 0.00 | 91 | 1018.1 |
| 20260902014603 | 77 | 0 | 0.0 | 0.0 | 0.00 | 0.00 | 0.00 | 90 | 1018.1 |
| 20260902013110 | 78 | 0 | 0.0 | 0.0 | 0.00 | 0.00 | 0.00 | 89 | 1018.1 |
| 20260902011606 | 79 | 0 | 0.0 | 0.0 | 0.00 | 0.00 | 0.00 | 89 | 1017.9 |
| 20260902010106 | 80 | 0 | 0.0 | 0.0 | 0.00 | 0.00 | 0.00 | 87 | 1017.8 |
| 20260902004607 | 81 | 0 | 0.0 | 0.0 | 0.00 | 0.00 | 0.00 | 85 | 1017.7 |
| 20260902003109 | 82 | 0 | 0.0 | 0.0 | 0.00 | 0.00 | 0.00 | 84 | 1017.6 |
| 20260902001605 | 83 | 0 | 0.0 | 0.0 | 0.00 | 0.00 | 0.00 | 81 | 1017.6 |
| 20260902000105 | 84 | 0 | 0.0 | 0.0 | 0.00 | 0.00 | 0.00 | 79 | 1017.7 |
| 20260901234608 | 86 | 0 | 0.0 | 0.0 | 0.00 | 0.00 | 0.00 | 77 | 1017.7 |
| 20260901233126 | 87 | 0 | 0.0 | 0.9 | 0.00 | 0.00 | 0.00 | 75 | 1017.7 |
| 20260901231616 | 88 | 0 | 0.0 | 1.7 | 0.00 | 0.00 | 0.00 | 70 | 1017.9 |
| 20260901230110 | 90 | 0 | 0.0 | 1.7 | 0.00 | 0.00 | 0.00 | 71 | 1017.8 |
| 20260901224605 | 90 | 355 | 0.0 | 1.7 | 0.00 | 0.00 | 0.00 | 63 | 1017.8 |
| 20260901223106 | 90 | 0 | 0.9 | 3.5 | 0.00 | 0.00 | 0.00 | 63 | 1017.8 |
| 20260901221612 | 91 | 5 | 0.9 | 3.5 | 0.00 | 0.00 | 0.00 | 60 | 1017.8 |
| 20260901220108 | 91 | 0 | 0.9 | 3.5 | 0.00 | 0.00 | 0.00 | 60 | 1017.7 |
| 20260901214605 | 91 | 343 | 1.7 | 3.5 | 0.00 | 0.00 | 0.00 | 59 | 1017.7 |
| 20260901213107 | 91 | 336 | 1.7 | 5.2 | 0.00 | 0.00 | 0.00 | 59 | 1017.7 |